Location: Chevoux
(46.3801°N, 4.9476°E)
Time: 22:32:22
(UTC+00:00)

Okean 1-7 Rocket - Pass Details

Date: 28 January 2021
Orbit: 615 x 650 km, 82.5° (Epoch: 04 March)

Event Time Altitude Azimuth Distance (km) Brightness Sun altitude
Rises 17:10:44 0° 191° (S) 2,951 7.5 -5.9°
Reaches altitude 10° 17:12:58 10° 193° (SSW) 2,048 6.7 -6.3°
Maximum altitude 17:17:31 78° 278° (W) 672 3.9 -7.0°
Drops below altitude 10° 17:22:08 10° 6° (N) 2,065 6.0 -7.8°
Sets 17:24:24 0° 8° (N) 2,979 6.8 -8.1°
